H1 CPF 2 NER 2022 10 14 9 287 01 glonass139 H2 1808601 9139 43687 2022 10 14 0 0 0 2022 10 17 23 45 0 900 1 1 0 0 0 1 H9 10 0 59866 0.00000 0 -10894750.772 5423000.110 -22395064.961 10 0 59866 900.00000 0 -13171595.264 3951091.313 -21461478.464 10 0 59866 1800.00000 0 -15426255.567 2717001.541 -20110170.472 10 0 59866 2700.00000 0 -17592513.561 1732211.245 -18367491.352 10 0 59866 3600.00000 0 -19604824.628 995751.320 -16267412.307 10 0 59866 4500.00000 0 -21400933.951 494478.672 -13850857.369 10 0 59866 5400.00000 0 -22924370.667 203873.334 -11164899.211 10 0 59866 6300.00000 0 -24126715.339 89321.798 -8261834.897 10 0 59866 7200.00000 0 -24969545.768 107830.645 -5198160.187 10 0 59866 8100.00000 0 -25425979.862 210096.370 -2033463.086 10 0 59866 9000.00000 0 -25481751.358 342842.314 1170741.172 10 0 59866 9900.00000 0 -25135774.037 451322.532 4352210.188 10 0 59866 10800.00000 0 -24400171.729 481885.587 7449185.624 10 0 59866 11700.00000 0 -23299773.943 384489.069 10401591.647 10 0 59866 12600.00000 0 -21871099.408 115058.112 13152197.086 10 0 59866 13500.00000 0 -20160871.095 -362411.857 15647718.959 10 0 59866 14400.00000 0 -18224125.642 -1074096.863 17839846.514 10 0 59866 15300.00000 0 -16121996.677 -2035004.503 19686166.678 10 0 59866 16200.00000 0 -13919264.592 -3248108.739 21150974.118 10 0 59866 17100.00000 0 -11681774.503 -4703995.772 22205951.437 10 0 59866 18000.00000 0 -9473829.158 -6381036.136 22830707.534 10 0 59866 18900.00000 0 -7355664.080 -8246076.495 23013164.842 10 0 59866 19800.00000 0 -5381108.476 -10255623.284 22749788.806 10 0 59866 20700.00000 0 -3595527.714 -12357470.122 22045655.644 10 0 59866 21600.00000 0 -2034131.342 -14492702.713 20914357.207 10 0 59866 22500.00000 0 -720715.664 -16597999.476 19377744.403 10 0 59866 23400.00000 0 333107.842 -18608133.627 17465513.478 10 0 59866 24300.00000 0 1128166.979 -20458574.008 15214642.114 10 0 59866 25200.00000 0 1677456.073 -22088077.406 12668685.046 10 0 59866 26100.00000 0 2005347.678 -23441164.936 9876941.600 10 0 59866 27000.00000 0 2146321.914 -24470379.359 6893510.119 10 0 59866 27900.00000 0 2143266.832 -25138228.826 3776246.561 10 0 59866 28800.00000 0 2045421.352 -25418735.026 585646.885 10 0 59866 29700.00000 0 1906047.648 -25298520.010 -2616325.469 10 0 59866 30600.00000 0 1779931.628 -24777384.949 -5767444.252 10 0 59866 31500.00000 0 1720817.728 -23868355.364 -8806433.414 10 0 59866 32400.00000 0 1778887.406 -22597189.763 -11674164.327 10 0 59866 33300.00000 0 1998389.189 -21001371.312 -14314813.243 10 0 59866 34200.00000 0 2415521.861 -19128624.108 -16676955.578 10 0 59866 35100.00000 0 3056661.880 -17035015.786 -18714575.002 10 0 59866 36000.00000 0 3937011.546 -14782725.710 -20387967.025 10 0 59866 36900.00000 0 5059726.614 -12437572.248 -21664518.880 10 0 59866 37800.00000 0 6415561.733 -10066402.709 -22519350.131 10 0 59866 38700.00000 0 7983050.131 -7734455.226 -22935801.315 10 0 59866 39600.00000 0 9729211.217 -5502803.062 -22905760.870 10 0 59866 40500.00000 0 11610757.433 -3425988.092 -22429823.987 10 0 59866 41400.00000 0 13575750.493 -1549942.121 -21517280.253 10 0 59866 42300.00000 0 15565638.007 89717.477 -20185930.378 10 0 59866 43200.00000 0 17517585.342 1468947.338 -18461735.659 10 0 59866 44100.00000 0 19367005.032 2576041.264 -16378307.141 10 0 59866 45000.00000 0 21050177.462 3411866.329 -13976244.683 10 0 59866 45900.00000 0 22506852.747 3989563.689 -11302339.137 10 0 59866 46800.00000 0 23682724.384 4333728.542 -8408653.600 10 0 59866 47700.00000 0 24531670.689 4479105.685 -5351502.298 10 0 59866 48600.00000 0 25017669.892 4468857.622 -2190347.634 10 0 59866 49500.00000 0 25116308.676 4352480.214 1013362.427 10 0 59866 50400.00000 0 24815821.193 4183455.514 4197393.208 10 0 59866 51300.00000 0 24117615.575 4016742.410 7299934.517 10 0 59866 52200.00000 0 23036266.593 3906212.152 10260800.267 10 0 59866 53100.00000 0 21598975.654 3902137.793 13022592.953 10 0 59866 54000.00000 0 19844521.538 4048843.895 15531810.609 10 0 59866 54900.00000 0 17821746.438 4382615.693 17739875.275 10 0 59866 55800.00000 0 15587640.965 4929955.643 19604063.781 10 0 59866 56700.00000 0 13205108.056 5706260.504 21088323.900 10 0 59866 57600.00000 0 10740498.566 6714974.352 22163961.298 10 0 59866 58500.00000 0 8261020.371 7947253.069 22810185.143 10 0 59866 59400.00000 0 5832127.528 9382154.672 23014502.967 10 0 59866 60300.00000 0 3514996.495 10987348.159 22772958.004 10 0 59866 61200.00000 0 1364192.699 12720312.257 22090204.934 10 0 59866 62100.00000 0 -574377.325 14529975.282 20979422.685 10 0 59866 63000.00000 0 -2265144.680 16358729.240 19462065.677 10 0 59866 63900.00000 0 -3684119.206 18144735.610 17567457.633 10 0 59866 64800.00000 0 -4819642.371 19824428.110 15332234.813 10 0 59866 65700.00000 0 -5672621.311 21335109.166 12799648.214 10 0 59866 66600.00000 0 -6256234.696 22617532.454 10018737.039 10 0 59866 67500.00000 0 -6595123.015 23618363.933 7043388.250 10 0 59866 68400.00000 0 -6724097.368 24292418.290 3931299.392 10 0 59866 69300.00000 0 -6686421.067 24604576.533 742864.205 10 0 59866 70200.00000 0 -6531736.589 24531303.381 -2459997.740 10 0 59866 71100.00000 0 -6313725.553 24061699.543 -5615044.711 10 0 59866 72000.00000 0 -6087601.020 23198043.299 -8660925.962 10 0 59866 72900.00000 0 -5907538.846 21955797.222 -11538380.299 10 0 59866 73800.00000 0 -5824157.637 20363078.401 -14191396.021 10 0 59866 74700.00000 0 -5882155.067 18459613.239 -16568308.809 10 0 59866 75600.00000 0 -6118201.821 16295219.766 -18622815.473 10 0 59866 76500.00000 0 -6559183.605 13927880.368 -20314883.146 10 0 59866 77400.00000 0 -7220866.899 11421485.285 -21611535.589 10 0 59866 78300.00000 0 -8107046.158 8843341.068 -22487500.948 10 0 59866 79200.00000 0 -9209209.724 6261548.021 -22925708.053 10 0 59866 80100.00000 0 -10506739.644 3742356.246 -22917621.423 10 0 59866 81000.00000 0 -11967637.913 1347610.576 -22463408.415 10 0 59866 81900.00000 0 -13549749.364 -867609.165 -21571935.243 10 0 59866 82800.00000 0 -15202430.192 -2857054.366 -20260591.999 10 0 59866 83700.00000 0 -16868592.287 -4584994.672 -18554950.177 10 0 59866 84600.00000 0 -18487037.506 -6027456.347 -16488259.489 10 0 59866 85500.00000 0 -19994983.557 -7172961.253 -14100794.050 10 0 59867 0.00000 0 -21330675.016 -8022737.068 -11439061.207 10 0 59867 900.00000 0 -22435970.003 -8590392.076 -8554887.391 10 0 59867 1800.00000 0 -23258791.653 -8901069.072 -5504403.056 10 0 59867 2700.00000 0 -23755343.460 -8990117.559 -2346942.343 10 0 59867 3600.00000 0 -23891993.357 -8901341.038 856116.877 10 0 59867 4500.00000 0 -23646748.175 -8684895.660 4042550.608 10 0 59867 5400.00000 0 -23010256.649 -8394930.532 7150499.872 10 0 59867 6300.00000 0 -21986299.309 -8087070.598 10119671.445 10 0 59867 7200.00000 0 -20591745.267 -7815849.293 12892504.603 10 0 59867 8100.00000 0 -18855978.295 -7632199.848 15415281.415 10 0 59867 9000.00000 0 -16819816.673 -7581111.196 17639159.544 10 0 59867 9900.00000 0 -14533972.286 -7699547.075 19521108.259 10 0 59867 10800.00000 0 -12057113.212 -8014715.574 21024730.611 10 0 59867 11700.00000 0 -9453610.125 -8542761.435 22120957.067 10 0 59867 12600.00000 0 -6791059.548 -9287935.715 22788598.326 10 0 59867 13500.00000 0 -4137685.735 -10242277.478 23014747.806 10 0 59867 14400.00000 0 -1559727.555 -11385821.111 22795026.858 10 0 59867 15300.00000 0 881082.693 -12687321.096 22133668.512 10 0 59867 16200.00000 0 3129845.703 -14105464.868 21043438.279 10 0 59867 17100.00000 0 5140531.893 -15590524.281 19545393.230 10 0 59867 18000.00000 0 6877645.242 -17086377.939 17668483.370 10 0 59867 18900.00000 0 8317446.303 -18532821.295 15449002.007 10 0 59867 19800.00000 0 9448684.358 -19868069.107 12929894.559 10 0 59867 20700.00000 0 10272808.737 -21031346.472 10159937.961 10 0 59867 21600.00000 0 10803650.849 -21965460.464 7192805.367 10 0 59867 22500.00000 0 11066590.426 -22619244.673 4086033.262 10 0 59867 23400.00000 0 11097241.014 -22949773.649 899910.351 10 0 59867 24300.00000 0 10939710.120 -22924253.423 -2303690.595 10 0 59867 25200.00000 0 10644507.454 -22521507.442 -5462515.309 10 0 59867 26100.00000 0 10266189.852 -21732993.961 -8515141.292 10 0 59867 27000.00000 0 9860842.886 -20563310.525 -11402177.643 10 0 59867 27900.00000 0 9483506.325 -19030162.678 -14067427.459 10 0 59867 28800.00000 0 9185653.214 -17163796.729 -16458989.282 10 0 59867 29700.00000 0 9012830.259 -15005919.051 -18530275.453 10 0 59867 30600.00000 0 9002560.383 -12608146.133 -20240926.847 10 0 59867 31500.00000 0 9182597.295 -10030049.544 -21557605.562 10 0 59867 32400.00000 0 9569606.883 -7336877.047 -22454649.750 10 0 59867 33300.00000 0 10168332.161 -4597044.688 -22914577.570 10 0 59867 34200.00000 0 10971277.871 -1879504.486 -22928430.241 10 0 59867 35100.00000 0 11958928.789 748902.668 -22495947.509 10 0 59867 36000.00000 0 13100493.072 3225998.690 -21625572.060 10 0 59867 36900.00000 0 14355139.701 5496618.341 -20334282.855 10 0 59867 37800.00000 0 15673678.006 7514660.114 -18647260.726 10 0 59867 38700.00000 0 17000608.534 9244753.103 -16597392.861 10 0 59867 39600.00000 0 18276458.633 10663471.125 -14224626.075 10 0 59867 40500.00000 0 19440303.996 11760044.679 -11575181.810 10 0 59867 41400.00000 0 20432369.533 12536542.519 -8700648.536 10 0 59867 42300.00000 0 21196599.473 13007516.997 -5656969.890 10 0 59867 43200.00000 0 21683088.020 13199130.153 -2503348.884 10 0 59867 44100.00000 0 21850267.828 13147799.352 698909.773 10 0 59867 45000.00000 0 21666763.974 12898421.498 3887595.936 10 0 59867 45900.00000 0 21112835.416 12502252.521 7000805.013 10 0 59867 46800.00000 0 20181343.475 12014533.090 9978139.718 10 0 59867 47700.00000 0 18878206.970 11491961.834 12761879.018 10 0 59867 48600.00000 0 17222325.267 10990123.354 15298091.684 10 0 59867 49500.00000 0 15244972.717 10560979.723 17537673.421 10 0 59867 50400.00000 0 12988690.018 10250531.006 19437288.069 10 0 59867 51300.00000 0 10505718.652 10096742.844 20960195.796 10 0 59867 52200.00000 0 7856043.193 10127827.630 22076953.381 10 0 59867 53100.00000 0 5105122.257 10360950.817 22765974.236 10 0 59867 54000.00000 0 2321401.201 10801416.128 23013938.465 10 0 59867 54900.00000 0 -426291.618 11442363.539 22816045.929 10 0 59867 55800.00000 0 -3071358.580 12264992.764 22176107.961 10 0 59867 56700.00000 0 -5551949.906 13239303.289 21106476.134 10 0 59867 57600.00000 0 -7813281.450 14325320.768 19627809.190 10 0 59867 58500.00000 0 -9809658.451 15474759.470 17768681.991 10 0 59867 59400.00000 0 -11506122.513 16633052.345 15565043.089 10 0 59867 60300.00000 0 -12879654.305 17741664.833 13059530.201 10 0 59867 61200.00000 0 -13919882.482 18740596.390 10300655.637 10 0 59867 62100.00000 0 -14629269.646 19570965.462 7341876.241 10 0 59867 63000.00000 0 -15022767.765 20177569.619 4240564.830 10 0 59867 63900.00000 0 -15126957.458 20511313.044 1056902.429 10 0 59867 64800.00000 0 -14978707.346 20531398.583 -2147287.641 10 0 59867 65700.00000 0 -14623409.896 20207191.005 -5309741.232 10 0 59867 66600.00000 0 -14112868.282 19519671.580 -8368966.683 10 0 59867 67500.00000 0 -13502923.752 18462421.055 -11265445.915 10 0 59867 68400.00000 0 -12850924.223 17042087.879 -13942799.221 10 0 59867 69300.00000 0 -12213141.751 15278320.206 -16348890.246 10 0 59867 70200.00000 0 -11642248.844 13203162.927 -18436848.902 10 0 59867 71100.00000 0 -11184961.171 10859943.501 -20165991.635 10 0 59867 72000.00000 0 -10879947.170 8301692.186 -21502620.483 10 0 59867 72900.00000 0 -10756093.728 5589161.853 -22420684.977 10 0 59867 73800.00000 0 -10831201.915 2788529.435 -22902293.721 10 0 59867 74700.00000 0 -11111168.454 -31125.340 -22938065.487 10 0 59867 75600.00000 0 -11589687.928 -2800459.092 -22527312.948 10 0 59867 76500.00000 0 -12248488.579 -5452512.028 -21678055.458 10 0 59867 77400.00000 0 -13058091.869 -7925253.049 -20406860.670 10 0 59867 78300.00000 0 -13979063.679 -10163917.024 -18738518.181 10 0 59867 79200.00000 0 -14963704.178 -12123037.241 -16705551.684 10 0 59867 80100.00000 0 -15958104.654 -13768088.884 -14347579.367 10 0 59867 81000.00000 0 -16904484.033 -15076675.902 -11710535.358 10 0 59867 81900.00000 0 -17743705.898 -16039212.958 -8845767.743 10 0 59867 82800.00000 0 -18417869.162 -16659075.405 -5809031.388 10 0 59867 83700.00000 0 -18872862.445 -16952212.863 -2659395.802 10 0 59867 84600.00000 0 -19060773.878 -16946244.597 541910.038 10 0 59867 85500.00000 0 -18942054.293 -16679076.687 3732692.569 10 0 59868 0.00000 0 -18487342.464 -16197101.192 6851004.185 10 0 59868 900.00000 0 -17678875.148 -15553054.529 9836347.099 10 0 59868 1800.00000 0 -16511423.407 -14803627.301 12630842.712 10 0 59868 2700.00000 0 -14992715.189 -14006926.351 15180349.534 10 0 59868 3600.00000 0 -13143327.128 -13219896.946 17435504.208 10 0 59868 4500.00000 0 -10996049.959 -12495813.366 19352667.847 10 0 59868 5400.00000 0 -8594753.895 -11881943.063 20894760.126 10 0 59868 6300.00000 0 -5992800.793 -11417481.815 22031966.164 10 0 59868 7200.00000 0 -3251068.524 -11131845.714 22742303.688 10 0 59868 8100.00000 0 -435668.474 -11043390.764 23012040.656 10 0 59868 9000.00000 0 2384550.456 -11158613.021 22835956.161 10 0 59868 9900.00000 0 5140609.385 -11471862.367 22217440.136 10 0 59868 10800.00000 0 7766012.188 -11965581.759 21168430.118 10 0 59868 11700.00000 0 10199256.819 -12611062.228 19709186.031 10 0 59868 12600.00000 0 12386142.598 -13369682.572 17867906.737 10 0 59868 13500.00000 0 14281779.011 -14194582.642 15680194.798 10 0 59868 14400.00000 0 15852213.605 -15032700.959 13188378.619 10 0 59868 15300.00000 0 17075611.816 -15827092.086 10440703.881 10 0 59868 16200.00000 0 17942939.963 -16519427.057 7490408.736 10 0 59868 17100.00000 0 18458122.998 -17052572.160 4394699.613 10 0 59868 18000.00000 0 18637670.293 -17373137.469 1213646.843 10 0 59868 18900.00000 0 18509785.089 -17433887.348 -1990978.910 10 0 59868 19800.00000 0 18112994.899 -17195910.357 -5156906.908 10 0 59868 20700.00000 0 17494360.451 -16630455.822 -8222579.626 10 0 59868 21600.00000 0 16707338.825 -15720357.964 -11128354.990 10 0 59868 22500.00000 0 15809391.177 -14460985.757 -13817673.512 10 0 59868 23400.00000 0 14859436.506 -12860676.600 -16238166.728 10 0 59868 24300.00000 0 13915259.570 -10940633.695 -18342684.657 10 0 59868 25200.00000 0 13030983.067 -8734289.667 -20090221.538 10 0 59868 26100.00000 0 12254711.517 -6286161.647 -21446721.217 10 0 59868 27000.00000 0 11626446.935 -3650244.521 -22385746.092 10 0 59868 27900.00000 0 11176364.777 -888008.535 -22888996.287 10 0 59868 28800.00000 0 10923523.313 1933915.718 -22946668.781 10 0 59868 29700.00000 0 10875061.043 4746268.827 -22557649.406 10 0 59868 30600.00000 0 11025916.051 7479805.392 -21729534.011 10 0 59868 31500.00000 0 11359078.961 10067938.121 -20478478.380 10 0 59868 32400.00000 0 11846368.485 12449273.259 -18828879.951 10 0 59868 33300.00000 0 12449696.324 14569931.956 -16812897.641 10 0 59868 34200.00000 0 13122767.402 16385561.106 -14469819.386 10 0 59868 35100.00000 0 13813142.885 17862950.426 -11845290.018 10 0 59868 36000.00000 0 14464578.030 18981189.146 -8990414.932 10 0 59868 36900.00000 0 15019535.266 19732315.107 -5960757.609 10 0 59868 37800.00000 0 15421765.502 20121430.609 -2815251.165 10 0 59868 38700.00000 0 15618847.912 20166281.912 384954.214 10 0 59868 39600.00000 0 15564580.310 19896321.850 3577684.719 10 0 59868 40500.00000 0 15221118.845 19351296.883 6700953.437 10 0 59868 41400.00000 0 14560776.476 18579419.704 9694164.017 10 0 59868 42300.00000 0 13567404.411 17635205.759 12499283.774 10 0 59868 43200.00000 0 12237298.377 16577065.786 15061963.622 10 0 59868 44100.00000 0 10579591.665 15464756.255 17332583.565 10 0 59868 45000.00000 0 8616118.445 14356795.026 19267204.115 10 0 59868 45900.00000 0 6380752.835 13307950.493 20828406.288 10 0 59868 46800.00000 0 3918250.813 12366908.858 21986005.060 10 0 59868 47700.00000 0 1282642.521 11574216.428 22717623.642 10 0 59868 48600.00000 0 -1464759.261 10960582.043 23009118.636 10 0 59868 49500.00000 0 -4257653.170 10545609.652 22854848.750 10 0 59868 50400.00000 0 -7027252.145 10337013.211 22257782.447 10 0 59868 51300.00000 0 -9704893.101 10330346.132 21229442.686 10 0 59868 52200.00000 0 -12224646.977 10509256.328 19789689.556 10 0 59868 53100.00000 0 -14525822.358 10846256.280 17966344.439 10 0 59868 54000.00000 0 -16555260.262 11303976.227 15794662.015 10 0 59868 54900.00000 0 -18269325.765 11836848.519 13316659.143 10 0 59868 55800.00000 0 -19635514.240 12393153.123 10580312.401 10 0 59868 56700.00000 0 -20633605.703 12917338.891 7638638.611 10 0 59868 57600.00000 0 -21256319.081 13352523.362 4548675.106 10 0 59868 58500.00000 0 -21509438.832 13643065.860 1370378.812 10 0 59868 59400.00000 0 -21411408.353 13737105.123 -1834534.950 10 0 59868 60300.00000 0 -20992406.887 13588953.648 -5003791.483 10 0 59868 61200.00000 0 -20292948.477 13161246.557 -8075769.962 10 0 59868 62100.00000 0 -19362061.828 12426752.798 -10990706.800 10 0 59868 63000.00000 0 -18255127.806 11369770.441 -13691865.090 10 0 59868 63900.00000 0 -17031465.960 9987045.371 -16126646.474 10 0 59868 64800.00000 0 -15751772.255 8288172.651 -18247623.062 10 0 59868 65700.00000 0 -14475516.485 6295461.752 -20013468.632 10 0 59868 66600.00000 0 -13258409.702 4043269.591 -21389770.298 10 0 59868 67500.00000 0 -12150048.842 1576827.783 -22349704.471 10 0 59868 68400.00000 0 -11191838.205 -1049388.059 -22874563.641 10 0 59868 69300.00000 0 -10415275.612 -3773679.696 -22954123.498 10 0 59868 70200.00000 0 -9840675.435 -6529454.598 -22586843.231 10 0 59868 71100.00000 0 -9476382.126 -9247764.573 -21779895.043 10 0 59868 72000.00000 0 -9318506.995 -11859948.999 -20549022.386 10 0 59868 72900.00000 0 -9351198.696 -14300272.656 -18918229.754 10 0 59868 73800.00000 0 -9547435.257 -16508448.348 -16919310.210 10 0 59868 74700.00000 0 -9870303.293 -18431939.188 -14591220.084 10 0 59868 75600.00000 0 -10274709.364 -20027944.870 -11979313.344 10 0 59868 76500.00000 0 -10709450.068 -21264989.538 -9134450.938 10 0 59868 77400.00000 0 -11119552.318 -22124045.605 -6112003.055 10 0 59868 78300.00000 0 -11448783.771 -22599147.677 -2970764.397 10 0 59868 79200.00000 0 -11642226.323 -22697472.247 228195.793 10 0 59868 80100.00000 0 -11648803.069 -22438881.366 3422725.717 10 0 59868 81000.00000 0 -11423651.340 -21854951.192 6550801.281 10 0 59868 81900.00000 0 -10930241.152 -20987527.858 9551730.651 10 0 59868 82800.00000 0 -10142149.521 -19886872.858 12367329.380 10 0 59868 83700.00000 0 -9044415.742 -18609477.041 14943043.453 10 0 59868 84600.00000 0 -7634420.605 -17215635.836 17228998.869 10 0 59868 85500.00000 0 -5922252.565 -15766887.788 19180958.082 10 0 59869 0.00000 0 -3930545.486 -14323423.833 20761165.679 10 0 59869 900.00000 0 -1693793.169 -12941574.450 21939068.868 10 0 59869 1800.00000 0 742828.660 -11671480.919 22691897.971 10 0 59869 2700.00000 0 3325088.479 -10555044.286 23005099.670 10 0 59869 3600.00000 0 5991704.263 -9624238.465 22872613.348 10 0 59869 4500.00000 0 8676647.230 -8899855.975 22296986.697 10 0 59869 5400.00000 0 11311649.923 -8390737.826 21289328.417 10 0 59869 6300.00000 0 13828816.398 -8093518.990 19869098.717 10 0 59869 7200.00000 0 16163227.690 -7992899.715 18063741.081 10 0 59869 8100.00000 0 18255435.905 -8062431.226 15908161.511 10 0 59869 9000.00000 0 20053744.360 -8265783.087 13444064.112 10 0 59869 9900.00000 0 21516179.597 -8558439.412 10719154.726 10 0 59869 10800.00000 0 22612073.447 -8889753.091 7786226.785 10 0 59869 11700.00000 0 23323189.135 -9205271.891 4702146.030 10 0 59869 12600.00000 0 23644343.978 -9449238.601 1526753.113 10 0 59869 13500.00000 0 23583502.193 -9567159.559 -1678295.161 10 0 59869 14400.00000 0 23161333.311 -9508332.577 -4850723.509 10 0 59869 15300.00000 0 22410254.269 -9228226.561 -7928851.247 10 0 59869 16200.00000 0 21372995.008 -8690610.977 -10852796.676 10 0 59869 17100.00000 0 20100747.724 -7869343.562 -13565648.720 10 0 59869 18000.00000 0 18650977.631 -6749739.025 -16014582.151 10 0 59869 18900.00000 0 17084987.561 -5329458.999 -18151893.936 10 0 59869 19800.00000 0 15465339.219 -3618883.754 -19935939.837 10 0 59869 20700.00000 0 13853240.016 -1640948.210 -21331952.348 10 0 59869 21600.00000 0 12306005.826 569552.636 -22312723.652 10 0 59869 22500.00000 0 10874706.632 2967161.228 -22859139.958 10 0 59869 23400.00000 0 9602094.303 5497408.902 -22960556.636 10 0 59869 24300.00000 0 8520899.516 8098853.134 -22615006.755 10 0 59869 25200.00000 0 7652569.176 10705416.106 -21829238.978 10 0 59869 26100.00000 0 7006496.884 13248927.250 -20618584.091 10 0 59869 27000.00000 0 6579778.085 15661763.883 -19006652.890 10 0 59869 27900.00000 0 6357499.135 17879479.801 -17024871.412 10 0 59869 28800.00000 0 6313546.991 19843312.096 -14711862.805 10 0 59869 29700.00000 0 6411904.022 21502461.628 -12112688.206 10 0 59869 30600.00000 0 6608371.880 22816052.104 -9277961.764 10 0 59869 31500.00000 0 6852650.244 23754686.244 -6262857.702 10 0 59869 32400.00000 0 7090681.190 24301534.656 -3126029.335 10 0 59869 33300.00000 0 7267158.823 24452912.798 71538.207 10 0 59869 34200.00000 0 7328097.003 24218323.071 3267718.432 10 0 59869 35100.00000 0 7223345.723 23619961.720 6400453.379 10 0 59869 36000.00000 0 6908949.200 22691712.711 9408958.954 10 0 59869 36900.00000 0 6349245.738 21477672.213 12234902.022 10 0 59869 37800.00000 0 5518620.596 20030266.842 14823526.476 10 0 59869 38700.00000 0 4402837.940 18408045.416 17124706.888 10 0 59869 39600.00000 0 2999895.848 16673237.287 19093909.932 10 0 59869 40500.00000 0 1320368.335 14889179.459 20693045.975 10 0 59869 41400.00000 0 -612780.305 13117719.644 21891195.523 10 0 59869 42300.00000 0 -2764901.588 11416702.954 22665197.590 10 0 59869 43200.00000 0 -5090860.860 9837645.958 23000089.812 10 0 59869 44100.00000 0 -7536678.543 8423693.781 22889392.699 10 0 59869 45000.00000 0 -10041547.759 7207944.076 22335233.153 10 0 59869 45900.00000 0 -12540146.162 6212206.440 21348305.107 10 0 59869 46800.00000 0 -14965147.660 5446247.891 19947667.878 10 0 59869 47700.00000 0 -17249831.330 4907555.144 18160385.548 10 0 59869 48600.00000 0 -19330680.576 4581623.073 16021013.468 10 0 59869 49500.00000 0 -21149865.673 4442757.076 13570940.638 10 0 59869 50400.00000 0 -22657507.036 4455355.788 10857599.494 10 0 59869 51300.00000 0 -23813625.295 4575620.432 7933557.195 10 0 59869 52200.00000 0 -24589696.746 4753619.146 4855504.904 10 0 59869 53100.00000 0 -24969748.700 4935619.443 1683163.973 10 0 59869 54000.00000 0 -24950948.283 5066590.312 -1521870.291 10 0 59869 54900.00000 0 -24543659.190 5092767.905 -4697324.933 10 0 59869 55800.00000 0 -23770963.208 4964175.670 -7781462.213 10 0 59869 56700.00000 0 -22667665.893 4636991.268 -10714285.003 10 0 59869 57600.00000 0 -21278827.616 4075658.816 -13438710.587 10 0 59869 58500.00000 0 -19657881.412 3254655.519 -15901689.191 10 0 59869 59400.00000 0 -17864416.642 2159836.268 -18055244.695 10 0 59869 60300.00000 0 -15961721.649 789297.525 -19857416.571 10 0 59869 61200.00000 0 -14014188.931 -846277.752 -21273084.038 10 0 59869 62100.00000 0 -12084692.022 -2723810.428 -22274655.960 10 0 59869 63000.00000 0 -10232044.410 -4808544.437 -22842612.745 10 0 59869 63900.00000 0 -8508647.312 -7055265.996 -22965889.472 10 0 59869 64800.00000 0 -6958424.891 -9409972.864 -22642092.720 10 0 59869 65700.00000 0 -5615133.233 -11811924.539 -21877546.865 10 0 59869 66600.00000 0 -4501113.551 -14195988.084 -20687168.965 10 0 59869 67500.00000 0 -3626541.082 -16495181.808 -19094174.774 10 0 59869 68400.00000 0 -2989200.125 -18643310.563 -17129621.732 10 0 59869 69300.00000 0 -2574793.399 -20577582.389 -14831798.069 10 0 59869 70200.00000 0 -2357771.124 -22241097.073 -12245470.226 10 0 59869 71100.00000 0 -2302643.253 -23585102.488 -9421003.632 10 0 59869 72000.00000 0 -2365717.843 -24570924.391 -6413374.573 10 0 59869 72900.00000 0 -2497190.470 -25171489.188 -3281093.005 10 0 59869 73800.00000 0 -2643494.855 -25372376.482 -85057.960 10 0 59869 74700.00000 0 -2749814.006 -25172358.092 3112631.380 10 0 59869 75600.00000 0 -2762644.564 -24583402.014 6249885.204 10 0 59869 76500.00000 0 -2632305.112 -23630142.393 9265829.240 10 0 59869 77400.00000 0 -2315281.966 -22348838.911 12101983.769 10 0 59869 78300.00000 0 -1776313.103 -20785870.398 14703392.726 10 0 59869 79200.00000 0 -990122.273 -18995826.610 17019681.368 10 0 59869 80100.00000 0 57269.698 -17039278.625 19006022.621 10 0 59869 81000.00000 0 1367711.550 -14980321.192 20623994.414 10 0 59869 81900.00000 0 2930601.321 -12883989.323 21842312.538 10 0 59869 82800.00000 0 4723092.915 -10813656.194 22637426.020 10 0 59869 83700.00000 0 6710821.573 -8828519.668 22993964.653 10 0 59869 84600.00000 0 8849119.003 -6981280.718 22905030.995 10 0 59869 85500.00000 0 11084668.776 -5316108.968 22372331.784 99